User: anonymous   Login
Location: Unspecified
(0.0000°N, 0.0000°E)
Time: 06:48:34
(UTC+00:00)
Language:

STARLINK-30596 - Orbit

View from above orbital plane
View from above orbital plane
View from above satellite
View from above satellite

Ground track
Ground track

The orbit is defined by the following mean orbital elements,

1 58110U          26145.35942192 +.00000000 +00000-0 +75703-4 0 00007
2 58110  53.1593 169.1591 0000931  85.6372 274.4735 15.30198994    00
Epoch (UTC): 25 May 2026 08:37:34
Eccentricity: 0.0000931
inclination: 53.1593°
perigee height: 475 km
apogee height: 476 km
right ascension of ascending node: 169.1591°
argument of perigee: 85.6372°
revolutions per day: 15.30198994
mean anomaly at epoch: 274.4735°

The dashed part of the orbit path shows where the satellite is in the earth's shadow,  

DLR